Flag for Ecuador Weather past 2 weeks in Guayaquil, Ecuador

Now
75 °F

Mostly cloudy.


Feels Like: 76 °F
Forecast: 71 / 88 °F
Wind: 9 mph from Southwest

Location: Guayaquil / Simon Bolivar

Current Time: Jul 24, 2014 at 11:09:13 AM

Latest Report: Jul 24, 2014 at 10:00 AM


Visibility: N/A

Pressure: 29.83 "Hg

Humidity: 78%

Dew point: 68 °F

Location of GuayaquilLocation

Historic Weather in Guayaquil — Graph

°F

Guayaquil temperature yesterday

Maximum temperature yesterday: 84 °F (at 4:00 PM)
Minimum temperature yesterday: 72 °F (at 1:00 AM)
Average temperature yesterday: 76 °F

Past Weeks' High & Low Weather Summary

 TemperatureHumidityPressure
High91 °F (Jul 10, 3:00 PM)88% (Jul 22, 4:00 AM)29.92 "Hg (Jul 22, 4:00 AM)
Low70 °F (Jul 22, 4:00 AM)49% (Jul 10, 3:00 PM)29.65 "Hg (Jul 10, 4:00 PM)
Average78 °F71%29.83 "Hg
* Reported Jul 9 2:00 PM — Jul 24 10:00 AM, Guayaquil, Weather by CustomWeather, © 2014

Note: Actual official high and low records may vary slightly from our data, if they occured in-between our weather recording intervals... More about our weather records

Advertising

Guayaquil weather history for July 14, 2014

 ConditionsComfort  
Time TempWeatherWind HumidityBarometerVisibility
12:00 AM
Jul 14
72 °FClear.12 mph78%29.89 "Hg10 mi
1:00 AM72 °FClear.13 mph78%29.89 "Hg10 mi
2:00 AM72 °FPassing clouds.12 mph83%29.89 "HgN/A
3:00 AM73 °FPassing clouds.7 mph78%29.86 "HgN/A
4:00 AM73 °FPassing clouds.6 mph78%29.86 "HgN/A
5:00 AM72 °FPassing clouds.3 mph83%29.86 "HgN/A
6:00 AM73 °FPassing clouds.5 mph78%29.86 "HgN/A
7:00 AM73 °FPartly sunny.7 mph78%29.89 "HgN/A
8:00 AM75 °FPartly sunny.8 mph74%29.89 "HgN/A
9:00 AM75 °FPartly sunny.8 mph74%29.92 "HgN/A
10:00 AM79 °FPartly sunny.6 mph65%29.92 "HgN/A
11:00 AM81 °FPartly sunny.8 mph66%29.83 "HgN/A
12:00 PM82 °FPartly sunny.7 mph62%29.89 "HgN/A
1:00 PM82 °FPartly sunny.7 mph62%29.86 "HgN/A
2:00 PM84 °FWarm.N/A58%29.83 "HgN/A
3:00 PM84 °FBroken clouds.7 mph58%29.83 "HgN/A
4:00 PM82 °FBroken clouds.8 mph62%29.80 "HgN/A
5:00 PM82 °FScattered clouds.5 mph66%29.80 "HgN/A
6:00 PM81 °FPartly sunny.6 mph70%29.83 "HgN/A
7:00 PM81 °FPassing clouds.7 mph70%29.86 "HgN/A
8:00 PM79 °FPartly cloudy.9 mph70%29.86 "HgN/A
9:00 PM77 °FPassing clouds.14 mph69%29.89 "HgN/A
10:00 PM75 °FPassing clouds.13 mph74%29.89 "HgN/A
11:00 PM73 °FPassing clouds.12 mph78%29.89 "HgN/A
Weather by CustomWeather, © 2014

See weather overviewHow to use our weather pages